World > North America > United States > Texas > Queen City  

Queen City, TX Hourly Weather Updates

Feedback E-mail the Weather

Quick Clicks

Queen City, TX Weather Maps

°F °C°F °C
Queen City Weather Map
UTC Time: 6/17/2024, 03:20
Your Time:

Queen City, TX Regional Weather

Expires:202406170400;;150754
ASUS44 KFWD 170315
RWRTX 
NORTH TEXAS HOURLY WEATHER ROUNDUP
NATIONAL WEATHER SERVICE FORT WORTH TX
1000 PM CDT SUN JUN 16 2024

NOTE: "FAIR" INDICATES FEW OR NO CLOUDS BELOW 12,000 FEET WITH NO
SIGNIFICANT WEATHER AND/OR OBSTRUCTIONS TO VISIBILITY.


TXZ095>097-106>112-122>126-135>138-148>153-164>167-170400-
EAST TEXAS
  
CITY           SKY/WX    TMP DP  RH WIND       PRES   REMARKS
PARIS          FAIR      79  72  79 E7        29.86R                  
SULPHUR SPRNGS FAIR      82  69  64 SE7       29.87S                  
MOUNT PLEASANT FAIR     N/A N/A N/A SE3       29.87R                  
GILMER         FAIR      79  70  74 CALM      29.86R                  
MINEOLA        FAIR      77  73  88 CALM      29.86R                  
TYLER          FAIR      82  71  69 SE5       29.86R                  
LONGVIEW       FAIR      83  72  69 CALM      29.85R                  
MARSHALL       FAIR      78  78  97 CALM      29.84S                  
ATHENS         FAIR      81  72  74 CALM      29.84R                  
PALESTINE      FAIR     N/A N/A N/A SE3       29.83R                  
JACKSONVILLE   FAIR      82  69  65 S3        29.89R                  
HENDERSON      FAIR      82  69  65 CALM      29.87S                  
CENTER         FAIR      82  73  74 SE5       29.89R                  
NACOGDOCHES    FAIR      83  75  77 SE7       29.87R HX  90           
LUFKIN         FAIR      83  74  74 SE6       29.86R                  
$$

SUPPLEMENTAL OBSERVATIONS (NWS FORT WORTH AREA)
  
CITY           SKY/WX    TMP DP  RH WIND       PRES   REMARKS
CADDO GRASSLND   N/A     81  70  69 SE2         N/A                   
LBJ GRASSLAND    N/A     82  63  51 SE7         N/A                   
POSSUM KINGDOM   N/A     82  68  61 SE12        N/A                   
GRANBURY         N/A     84  66  54 SE12        N/A                   
MCGREGOR         N/A     81  68  65 SE5         N/A                   
TEMPLE           N/A     82  70  65 SE6         N/A                   
PALESTINE        N/A     77  72  83 CALM        N/A                   
$$

SUPPLEMENTAL OBSERVATIONS (NWS NORMAN AREA)
  
CITY           SKY/WX    TMP DP  RH WIND       PRES   REMARKS
GOODLETT         N/A     85  69  58 SE14      29.77                   
ODELL            N/A     84  71  63 SE14      29.80R                  
CROWELL          N/A     85  69  60 SE12      29.79R                  
KNOX CITY        N/A     84  70  61 SE16      29.78                   
SEYMOUR          N/A     83  70  64 SE16      29.79R                  
MILLERS CREEK    N/A     82  68  61 SE10        N/A                   
$$

SUPPLEMENTAL OBSERVATIONS (NWS SAN ANGELO AREA)
  
CITY           SKY/WX    TMP DP  RH WIND       PRES   REMARKS
WEINERT          N/A     84  68  58 SE15      29.79R                  
HASKELL          N/A     84  69  61 SE10      29.79                   
THROCKMORTON     N/A     82  70  66 SE8       29.81                   
STAMFORD         N/A     85  70  61 SE16      29.80                   
CLYDE            N/A     82  69  63 SE13      29.85R                  
HAMBY            N/A     82  64  54 SE10        N/A                   
IVIE RESERVOIR   N/A     88  66  48 SE14        N/A  HX  90           
COLORADO BEND    N/A     82  68  61 E9G20       N/A                   
$$

SUPPLEMENTAL OBSERVATIONS (NWS SHREVEPORT AREA)
  
CITY           SKY/WX    TMP DP  RH WIND       PRES   REMARKS
TEXARKANA        N/A     75  73  94 CALM        N/A                   
LINDEN           N/A     79  73  83 CALM        N/A                   
CADDO LAKE       N/A     79  73  83 SE1         N/A                   
LUFKIN           N/A     82  72  69 MISG        N/A                   
N SABINE NF      N/A     81  72  74 MISG        N/A                   
$$

SUPPLEMENTAL OBSERVATIONS ARE A COLLECTION OF AUTOMATED INSTRUMENTS
THAT ARE MAINTAINED BY A VARIETY OF FEDERAL AND STATE AGENCIES. 
CERTAIN ELEMENTS...SUCH AS HUMIDITY VALUES AND SUSTAINED WIND 
SPEEDS...MAY BE APPROXIMATED.

  

SKY/WX - Weather  TMP - Temperature  DP - Dew Point  RH - Humidity
WIND - Wind Direction/Speed PRES - Barometric Pressure VSB - Visibility
WCI - Wind Chill Index E13G22 Wind - East Wind 13 mph/Gusts of 22 mph

Trending Headlines

Trending Entertainment Headlines

Queen City Radar Loop

Use the map search tool if you want to place a location marker on the radar map...

Queen City Quick Facts

National Two Day Weather Forecast


E-mail the Queen City Weather Forecast

Voice your opinion or tell us about page issues...